Retour au catalogue

NOAA 16 DEB

ActifSSO
NORAD 42363·DEBRIS·🇺🇸 United States

Lancé Sep 21, 2000 depuis Vandenberg Space Force Base

Loading…

Prochains Passages (prochaines 24 heures)

TLE

FraisSource: Space-Track

Époque: Sep 12, 2026, 05:44 UTC

1 42363U 00055RF  26255.23906092  .00002065  00000-0  10703-2 0  9995
2 42363  98.8005 255.9473 0062385 139.5151 221.0688 14.14933768540736

Suivez NOAA 16 DEB en temps réel avec AllMySat

Download on the App Store